owner,sensor,date,latitude,longitude,sea_surface_height_above_sea_level,qcFlag 
COMPS,ioos:station:USF.COMPS:ARP:1,2014-05-01T00:00:00Z,28.4330,-82.6670,-0.314,1111122 
COMPS,ioos:station:USF.COMPS:ARP:1,2014-05-01T00:06:00Z,28.4330,-82.6670,-0.328,1111122 
COMPS,ioos:station:USF.COMPS:ARP:1,2014-05-01T00:12:00Z,28.4330,-82.6670,-0.343,1111122 
COMPS,ioos:station:USF.COMPS:ARP:1,2014-05-01T00:18:00Z,28.4330,-82.6670,-0.357,1111122 
COMPS,ioos:station:USF.COMPS:ARP:1,2014-05-01T00:24:00Z,28.4330,-82.6670,-0.37,1111122 
COMPS,ioos:station:USF.COMPS:ARP:1,2014-05-01T00:30:00Z,28.4330,-82.6670,-0.371,1111122 
COMPS,ioos:station:USF.COMPS:ARP:1,2014-05-01T00:36:00Z,28.4330,-82.6670,-0.396,1111122 
COMPS,ioos:station:USF.COMPS:ARP:1,2014-05-01T00:42:00Z,28.4330,-82.6670,-0.407,1111122 
COMPS,ioos:station:USF.COMPS:ARP:1,2014-05-01T00:48:00Z,28.4330,-82.6670,-0.419,1111122 
COMPS,ioos:station:USF.COMPS:ARP:1,2014-05-01T00:54:00Z,28.4330,-82.6670,-0.43,1111122 
COMPS,ioos:station:USF.COMPS:ARP:1,2014-05-01T01:00:00Z,28.4330,-82.6670,-0.43,1111122 
COMPS,ioos:station:USF.COMPS:ARP:1,2014-05-01T01:06:00Z,28.4330,-82.6670,-0.449,1111122 
COMPS,ioos:station:USF.COMPS:ARP:1,2014-05-01T01:12:00Z,28.4330,-82.6670,-0.459,1111122 
COMPS,ioos:station:USF.COMPS:ARP:1,2014-05-01T01:18:00Z,28.4330,-82.6670,-0.468,1111122 
COMPS,ioos:station:USF.COMPS:ARP:1,2014-05-01T01:24:00Z,28.4330,-82.6670,-0.476,1111122 
COMPS,ioos:station:USF.COMPS:ARP:1,2014-05-01T01:30:00Z,28.4330,-82.6670,-0.484,1111122 
COMPS,ioos:station:USF.COMPS:ARP:1,2014-05-01T01:36:00Z,28.4330,-82.6670,-0.491,1111122 
COMPS,ioos:station:USF.COMPS:ARP:1,2014-05-01T01:42:00Z,28.4330,-82.6670,-0.498,1111122 
COMPS,ioos:station:USF.COMPS:ARP:1,2014-05-01T01:48:00Z,28.4330,-82.6670,-0.506,1111122 
COMPS,ioos:station:USF.COMPS:ARP:1,2014-05-01T01:54:00Z,28.4330,-82.6670,-0.513,1111122 
COMPS,ioos:station:USF.COMPS:ARP:1,2014-05-01T02:00:00Z,28.4330,-82.6670,-0.519,1111122 
COMPS,ioos:station:USF.COMPS:ARP:1,2014-05-01T02:06:00Z,28.4330,-82.6670,-0.524,1111122 
COMPS,ioos:station:USF.COMPS:ARP:1,2014-05-01T02:12:00Z,28.4330,-82.6670,-0.53,1111122 
COMPS,ioos:station:USF.COMPS:ARP:1,2014-05-01T02:18:00Z,28.4330,-82.6670,-0.535,1111122 
COMPS,ioos:station:USF.COMPS:ARP:1,2014-05-01T02:24:00Z,28.4330,-82.6670,-0.541,1111122 
COMPS,ioos:station:USF.COMPS:ARP:1,2014-05-01T02:30:00Z,28.4330,-82.6670,-0.546,1111122 
COMPS,ioos:station:USF.COMPS:ARP:1,2014-05-01T02:36:00Z,28.4330,-82.6670,-0.551,1111122 
COMPS,ioos:station:USF.COMPS:ARP:1,2014-05-01T02:42:00Z,28.4330,-82.6670,-0.555,1111122 
COMPS,ioos:station:USF.COMPS:ARP:1,2014-05-01T02:48:00Z,28.4330,-82.6670,-0.559,1111122 
COMPS,ioos:station:USF.COMPS:ARP:1,2014-05-01T02:54:00Z,28.4330,-82.6670,-0.563,1111122 
COMPS,ioos:station:USF.COMPS:ARP:1,2014-05-01T03:00:00Z,28.4330,-82.6670,-0.567,1111122 
COMPS,ioos:station:USF.COMPS:ARP:1,2014-05-01T03:06:00Z,28.4330,-82.6670,-0.571,1111122 
COMPS,ioos:station:USF.COMPS:ARP:1,2014-05-01T03:12:00Z,28.4330,-82.6670,-0.575,1111122 
COMPS,ioos:station:USF.COMPS:ARP:1,2014-05-01T03:18:00Z,28.4330,-82.6670,-0.578,1111122 
COMPS,ioos:station:USF.COMPS:ARP:1,2014-05-01T03:24:00Z,28.4330,-82.6670,-0.581,1111122 
COMPS,ioos:station:USF.COMPS:ARP:1,2014-05-01T03:30:00Z,28.4330,-82.6670,-0.584,1111122 
COMPS,ioos:station:USF.COMPS:ARP:1,2014-05-01T03:36:00Z,28.4330,-82.6670,-0.586,1111122 
COMPS,ioos:station:USF.COMPS:ARP:1,2014-05-01T03:42:00Z,28.4330,-82.6670,-0.587,1111122 
COMPS,ioos:station:USF.COMPS:ARP:1,2014-05-01T03:48:00Z,28.4330,-82.6670,-0.587,1111122 
COMPS,ioos:station:USF.COMPS:ARP:1,2014-05-01T03:54:00Z,28.4330,-82.6670,-0.585,1111122 
COMPS,ioos:station:USF.COMPS:ARP:1,2014-05-01T04:00:00Z,28.4330,-82.6670,-0.58,1111122 
COMPS,ioos:station:USF.COMPS:ARP:1,2014-05-01T04:06:00Z,28.4330,-82.6670,-0.575,1111122 
COMPS,ioos:station:USF.COMPS:ARP:1,2014-05-01T04:12:00Z,28.4330,-82.6670,-0.571,1111122 
COMPS,ioos:station:USF.COMPS:ARP:1,2014-05-01T04:18:00Z,28.4330,-82.6670,-0.565,1111122 
COMPS,ioos:station:USF.COMPS:ARP:1,2014-05-01T04:24:00Z,28.4330,-82.6670,-0.557,1111122 
COMPS,ioos:station:USF.COMPS:ARP:1,2014-05-01T04:30:00Z,28.4330,-82.6670,-0.548,1111122 
COMPS,ioos:station:USF.COMPS:ARP:1,2014-05-01T04:36:00Z,28.4330,-82.6670,-0.537,1111122 
COMPS,ioos:station:USF.COMPS:ARP:1,2014-05-01T04:42:00Z,28.4330,-82.6670,-0.524,1111122 
COMPS,ioos:station:USF.COMPS:ARP:1,2014-05-01T04:48:00Z,28.4330,-82.6670,-0.51,1111122 
COMPS,ioos:station:USF.COMPS:ARP:1,2014-05-01T04:54:00Z,28.4330,-82.6670,-0.492,1111122 
COMPS,ioos:station:USF.COMPS:ARP:1,2014-05-01T05:00:00Z,28.4330,-82.6670,-0.472,1111122 
COMPS,ioos:station:USF.COMPS:ARP:1,2014-05-01T05:06:00Z,28.4330,-82.6670,-0.449,1111122 
COMPS,ioos:station:USF.COMPS:ARP:1,2014-05-01T05:12:00Z,28.4330,-82.6670,-0.424,1111122 
COMPS,ioos:station:USF.COMPS:ARP:1,2014-05-01T05:18:00Z,28.4330,-82.6670,-0.395,1111122 
COMPS,ioos:station:USF.COMPS:ARP:1,2014-05-01T05:24:00Z,28.4330,-82.6670,-0.363,1111122 
COMPS,ioos:station:USF.COMPS:ARP:1,2014-05-01T05:30:00Z,28.4330,-82.6670,-0.331,1111122 
COMPS,ioos:station:USF.COMPS:ARP:1,2014-05-01T05:36:00Z,28.4330,-82.6670,-0.296,1111122 
COMPS,ioos:station:USF.COMPS:ARP:1,2014-05-01T05:42:00Z,28.4330,-82.6670,-0.257,1111122 
COMPS,ioos:station:USF.COMPS:ARP:1,2014-05-01T05:48:00Z,28.4330,-82.6670,-0.216,1111122 
COMPS,ioos:station:USF.COMPS:ARP:1,2014-05-01T05:54:00Z,28.4330,-82.6670,-0.172,1111122 
COMPS,ioos:station:USF.COMPS:ARP:1,2014-05-01T06:00:00Z,28.4330,-82.6670,-0.125,1111122 
COMPS,ioos:station:USF.COMPS:ARP:1,2014-05-01T06:06:00Z,28.4330,-82.6670,-0.079,1111122 
COMPS,ioos:station:USF.COMPS:ARP:1,2014-05-01T06:12:00Z,28.4330,-82.6670,-0.033,1111122 
COMPS,ioos:station:USF.COMPS:ARP:1,2014-05-01T06:18:00Z,28.4330,-82.6670,0.009,1111122 
COMPS,ioos:station:USF.COMPS:ARP:1,2014-05-01T06:24:00Z,28.4330,-82.6670,0.052,1111122 
COMPS,ioos:station:USF.COMPS:ARP:1,2014-05-01T06:30:00Z,28.4330,-82.6670,0.09,1111122 
COMPS,ioos:station:USF.COMPS:ARP:1,2014-05-01T06:36:00Z,28.4330,-82.6670,0.123,1111122 
COMPS,ioos:station:USF.COMPS:ARP:1,2014-05-01T06:42:00Z,28.4330,-82.6670,0.158,1111122 
COMPS,ioos:station:USF.COMPS:ARP:1,2014-05-01T06:48:00Z,28.4330,-82.6670,0.187,1111122 
COMPS,ioos:station:USF.COMPS:ARP:1,2014-05-01T06:54:00Z,28.4330,-82.6670,0.214,1111122 
COMPS,ioos:station:USF.COMPS:ARP:1,2014-05-01T07:00:00Z,28.4330,-82.6670,0.242,1111122 
COMPS,ioos:station:USF.COMPS:ARP:1,2014-05-01T07:06:00Z,28.4330,-82.6670,0.268,1111122 
COMPS,ioos:station:USF.COMPS:ARP:1,2014-05-01T07:12:00Z,28.4330,-82.6670,0.285,1111122 
COMPS,ioos:station:USF.COMPS:ARP:1,2014-05-01T07:18:00Z,28.4330,-82.6670,0.31,1111122 
COMPS,ioos:station:USF.COMPS:ARP:1,2014-05-01T07:24:00Z,28.4330,-82.6670,0.331,1111122 
COMPS,ioos:station:USF.COMPS:ARP:1,2014-05-01T07:30:00Z,28.4330,-82.6670,0.342,1111122 
COMPS,ioos:station:USF.COMPS:ARP:1,2014-05-01T07:36:00Z,28.4330,-82.6670,0.361,1111122 
COMPS,ioos:station:USF.COMPS:ARP:1,2014-05-01T07:42:00Z,28.4330,-82.6670,0.375,1111122 
COMPS,ioos:station:USF.COMPS:ARP:1,2014-05-01T07:48:00Z,28.4330,-82.6670,0.386,1111122 
COMPS,ioos:station:USF.COMPS:ARP:1,2014-05-01T07:54:00Z,28.4330,-82.6670,0.397,1111122 
COMPS,ioos:station:USF.COMPS:ARP:1,2014-05-01T08:00:00Z,28.4330,-82.6670,0.407,1111122 
COMPS,ioos:station:USF.COMPS:ARP:1,2014-05-01T08:06:00Z,28.4330,-82.6670,0.411,1111122 
COMPS,ioos:station:USF.COMPS:ARP:1,2014-05-01T08:12:00Z,28.4330,-82.6670,0.405,1111122 
COMPS,ioos:station:USF.COMPS:ARP:1,2014-05-01T08:18:00Z,28.4330,-82.6670,0.406,1111122 
COMPS,ioos:station:USF.COMPS:ARP:1,2014-05-01T08:24:00Z,28.4330,-82.6670,0.398,1111122 
COMPS,ioos:station:USF.COMPS:ARP:1,2014-05-01T08:30:00Z,28.4330,-82.6670,0.387,1111122 
COMPS,ioos:station:USF.COMPS:ARP:1,2014-05-01T08:36:00Z,28.4330,-82.6670,0.363,1111122 
COMPS,ioos:station:USF.COMPS:ARP:1,2014-05-01T08:42:00Z,28.4330,-82.6670,0.363,1111122 
COMPS,ioos:station:USF.COMPS:ARP:1,2014-05-01T08:48:00Z,28.4330,-82.6670,0.351,1111122 
COMPS,ioos:station:USF.COMPS:ARP:1,2014-05-01T08:54:00Z,28.4330,-82.6670,0.341,1111122 
COMPS,ioos:station:USF.COMPS:ARP:1,2014-05-01T09:00:00Z,28.4330,-82.6670,0.321,1111122 
COMPS,ioos:station:USF.COMPS:ARP:1,2014-05-01T09:06:00Z,28.4330,-82.6670,0.304,1111122 
COMPS,ioos:station:USF.COMPS:ARP:1,2014-05-01T09:12:00Z,28.4330,-82.6670,0.886,1111122 
COMPS,ioos:station:USF.COMPS:ARP:1,2014-05-01T09:18:00Z,28.4330,-82.6670,0.28,1111122 
COMPS,ioos:station:USF.COMPS:ARP:1,2014-05-01T09:24:00Z,28.4330,-82.6670,0.254,1111122 
COMPS,ioos:station:USF.COMPS:ARP:1,2014-05-01T09:30:00Z,28.4330,-82.6670,0.237,1111122 
COMPS,ioos:station:USF.COMPS:ARP:1,2014-05-01T09:36:00Z,28.4330,-82.6670,0.22,1111122 
COMPS,ioos:station:USF.COMPS:ARP:1,2014-05-01T09:42:00Z,28.4330,-82.6670,0.2,1111122 
COMPS,ioos:station:USF.COMPS:ARP:1,2014-05-01T09:48:00Z,28.4330,-82.6670,0.182,1111122 
COMPS,ioos:station:USF.COMPS:ARP:1,2014-05-01T09:54:00Z,28.4330,-82.6670,0.166,1111122 
COMPS,ioos:station:USF.COMPS:ARP:1,2014-05-01T10:00:00Z,28.4330,-82.6670,0.144,1111122 
COMPS,ioos:station:USF.COMPS:ARP:1,2014-05-01T10:06:00Z,28.4330,-82.6670,0.127,1111122 
COMPS,ioos:station:USF.COMPS:ARP:1,2014-05-01T10:12:00Z,28.4330,-82.6670,0.108,1111122 
COMPS,ioos:station:USF.COMPS:ARP:1,2014-05-01T10:18:00Z,28.4330,-82.6670,0.091,1111122 
COMPS,ioos:station:USF.COMPS:ARP:1,2014-05-01T10:24:00Z,28.4330,-82.6670,0.075,1111122 
COMPS,ioos:station:USF.COMPS:ARP:1,2014-05-01T10:30:00Z,28.4330,-82.6670,0.058,1111122 
COMPS,ioos:station:USF.COMPS:ARP:1,2014-05-01T10:36:00Z,28.4330,-82.6670,0.045,1111122 
COMPS,ioos:station:USF.COMPS:ARP:1,2014-05-01T10:42:00Z,28.4330,-82.6670,0.028,1111122 
COMPS,ioos:station:USF.COMPS:ARP:1,2014-05-01T10:48:00Z,28.4330,-82.6670,0.011,1111122 
COMPS,ioos:station:USF.COMPS:ARP:1,2014-05-01T10:54:00Z,28.4330,-82.6670,-0.005,1111122 
COMPS,ioos:station:USF.COMPS:ARP:1,2014-05-01T11:00:00Z,28.4330,-82.6670,-0.017,1111122 
COMPS,ioos:station:USF.COMPS:ARP:1,2014-05-01T11:06:00Z,28.4330,-82.6670,-0.031,1111122 
COMPS,ioos:station:USF.COMPS:ARP:1,2014-05-01T11:12:00Z,28.4330,-82.6670,-0.044,1111122 
COMPS,ioos:station:USF.COMPS:ARP:1,2014-05-01T11:18:00Z,28.4330,-82.6670,-0.06,1111122 
COMPS,ioos:station:USF.COMPS:ARP:1,2014-05-01T11:24:00Z,28.4330,-82.6670,-0.065,1111122 
COMPS,ioos:station:USF.COMPS:ARP:1,2014-05-01T11:36:00Z,28.4330,-82.6670,-0.088,1111122 
COMPS,ioos:station:USF.COMPS:ARP:1,2014-05-01T11:42:00Z,28.4330,-82.6670,-0.094,1111122 
COMPS,ioos:station:USF.COMPS:ARP:1,2014-05-01T11:48:00Z,28.4330,-82.6670,-0.097,1111122 
COMPS,ioos:station:USF.COMPS:ARP:1,2014-05-01T11:54:00Z,28.4330,-82.6670,-0.105,1111122 
COMPS,ioos:station:USF.COMPS:ARP:1,2014-05-01T12:00:00Z,28.4330,-82.6670,-0.112,1111122 
COMPS,ioos:station:USF.COMPS:ARP:1,2014-05-01T12:06:00Z,28.4330,-82.6670,-0.115,1111122 
COMPS,ioos:station:USF.COMPS:ARP:1,2014-05-01T12:12:00Z,28.4330,-82.6670,-0.117,1111122 
COMPS,ioos:station:USF.COMPS:ARP:1,2014-05-01T12:18:00Z,28.4330,-82.6670,-0.115,1111122 
COMPS,ioos:station:USF.COMPS:ARP:1,2014-05-01T12:24:00Z,28.4330,-82.6670,-0.111,1111122 
COMPS,ioos:station:USF.COMPS:ARP:1,2014-05-01T12:30:00Z,28.4330,-82.6670,-0.114,1111122 
COMPS,ioos:station:USF.COMPS:ARP:1,2014-05-01T12:36:00Z,28.4330,-82.6670,-0.113,1111122 
COMPS,ioos:station:USF.COMPS:ARP:1,2014-05-01T12:42:00Z,28.4330,-82.6670,-0.111,1111122 
COMPS,ioos:station:USF.COMPS:ARP:1,2014-05-01T12:48:00Z,28.4330,-82.6670,-0.114,1111122 
COMPS,ioos:station:USF.COMPS:ARP:1,2014-05-01T12:54:00Z,28.4330,-82.6670,-0.112,1111122 
COMPS,ioos:station:USF.COMPS:ARP:1,2014-05-01T13:00:00Z,28.4330,-82.6670,-0.107,1111122 
COMPS,ioos:station:USF.COMPS:ARP:1,2014-05-01T13:06:00Z,28.4330,-82.6670,-0.113,1111122 
COMPS,ioos:station:USF.COMPS:ARP:1,2014-05-01T13:12:00Z,28.4330,-82.6670,-0.115,1111122 
COMPS,ioos:station:USF.COMPS:ARP:1,2014-05-01T13:18:00Z,28.4330,-82.6670,-0.121,1111122 
COMPS,ioos:station:USF.COMPS:ARP:1,2014-05-01T13:24:00Z,28.4330,-82.6670,-0.115,1111122 
COMPS,ioos:station:USF.COMPS:ARP:1,2014-05-01T13:30:00Z,28.4330,-82.6670,-0.119,1111122 
COMPS,ioos:station:USF.COMPS:ARP:1,2014-05-01T13:36:00Z,28.4330,-82.6670,-0.108,1111122 
COMPS,ioos:station:USF.COMPS:ARP:1,2014-05-01T13:42:00Z,28.4330,-82.6670,-0.106,1111122 
COMPS,ioos:station:USF.COMPS:ARP:1,2014-05-01T13:48:00Z,28.4330,-82.6670,-0.096,1111122 
COMPS,ioos:station:USF.COMPS:ARP:1,2014-05-01T13:54:00Z,28.4330,-82.6670,-0.094,1111122 
COMPS,ioos:station:USF.COMPS:ARP:1,2014-05-01T14:00:00Z,28.4330,-82.6670,-0.081,1111122 
COMPS,ioos:station:USF.COMPS:ARP:1,2014-05-01T14:06:00Z,28.4330,-82.6670,-0.076,1111122 
COMPS,ioos:station:USF.COMPS:ARP:1,2014-05-01T14:18:00Z,28.4330,-82.6670,-0.056,1111122 
COMPS,ioos:station:USF.COMPS:ARP:1,2014-05-01T14:24:00Z,28.4330,-82.6670,-0.048,1111122 
COMPS,ioos:station:USF.COMPS:ARP:1,2014-05-01T14:30:00Z,28.4330,-82.6670,-0.036,1111122 
COMPS,ioos:station:USF.COMPS:ARP:1,2014-05-01T14:36:00Z,28.4330,-82.6670,-0.026,1111122 
COMPS,ioos:station:USF.COMPS:ARP:1,2014-05-01T14:42:00Z,28.4330,-82.6670,-0.012,1111122 
COMPS,ioos:station:USF.COMPS:ARP:1,2014-05-01T14:48:00Z,28.4330,-82.6670,0.007,1111122 
COMPS,ioos:station:USF.COMPS:ARP:1,2014-05-01T14:54:00Z,28.4330,-82.6670,0.026,1111122 
COMPS,ioos:station:USF.COMPS:ARP:1,2014-05-01T15:00:00Z,28.4330,-82.6670,0.05,1111122 
COMPS,ioos:station:USF.COMPS:ARP:1,2014-05-01T15:06:00Z,28.4330,-82.6670,0.072,1111122 
COMPS,ioos:station:USF.COMPS:ARP:1,2014-05-01T15:12:00Z,28.4330,-82.6670,0.092,1111122 
COMPS,ioos:station:USF.COMPS:ARP:1,2014-05-01T15:18:00Z,28.4330,-82.6670,0.113,1111122 
COMPS,ioos:station:USF.COMPS:ARP:1,2014-05-01T15:24:00Z,28.4330,-82.6670,0.133,1111122 
COMPS,ioos:station:USF.COMPS:ARP:1,2014-05-01T15:30:00Z,28.4330,-82.6670,0.154,1111122 
COMPS,ioos:station:USF.COMPS:ARP:1,2014-05-01T15:36:00Z,28.4330,-82.6670,0.175,1111122 
COMPS,ioos:station:USF.COMPS:ARP:1,2014-05-01T15:42:00Z,28.4330,-82.6670,0.193,1111122 
COMPS,ioos:station:USF.COMPS:ARP:1,2014-05-01T15:48:00Z,28.4330,-82.6670,0.218,1111122 
COMPS,ioos:station:USF.COMPS:ARP:1,2014-05-01T15:54:00Z,28.4330,-82.6670,0.24,1111122 
COMPS,ioos:station:USF.COMPS:ARP:1,2014-05-01T16:00:00Z,28.4330,-82.6670,0.261,1111122 
COMPS,ioos:station:USF.COMPS:ARP:1,2014-05-01T16:06:00Z,28.4330,-82.6670,0.284,1111122 
COMPS,ioos:station:USF.COMPS:ARP:1,2014-05-01T16:12:00Z,28.4330,-82.6670,0.31,1111122 
COMPS,ioos:station:USF.COMPS:ARP:1,2014-05-01T16:18:00Z,28.4330,-82.6670,0.332,1111122 
COMPS,ioos:station:USF.COMPS:ARP:1,2014-05-01T16:24:00Z,28.4330,-82.6670,0.352,1111122 
COMPS,ioos:station:USF.COMPS:ARP:1,2014-05-01T16:30:00Z,28.4330,-82.6670,0.373,1111122 
COMPS,ioos:station:USF.COMPS:ARP:1,2014-05-01T16:36:00Z,28.4330,-82.6670,0.394,1111122 
COMPS,ioos:station:USF.COMPS:ARP:1,2014-05-01T16:42:00Z,28.4330,-82.6670,0.418,1111122 
COMPS,ioos:station:USF.COMPS:ARP:1,2014-05-01T16:48:00Z,28.4330,-82.6670,0.441,1111122 
COMPS,ioos:station:USF.COMPS:ARP:1,2014-05-01T16:54:00Z,28.4330,-82.6670,0.46,1111122 
COMPS,ioos:station:USF.COMPS:ARP:1,2014-05-01T17:00:00Z,28.4330,-82.6670,0.479,1111122 
COMPS,ioos:station:USF.COMPS:ARP:1,2014-05-01T17:06:00Z,28.4330,-82.6670,0.5,1111122 
COMPS,ioos:station:USF.COMPS:ARP:1,2014-05-01T17:12:00Z,28.4330,-82.6670,0.518,1111122 
COMPS,ioos:station:USF.COMPS:ARP:1,2014-05-01T17:18:00Z,28.4330,-82.6670,0.54,1111122 
COMPS,ioos:station:USF.COMPS:ARP:1,2014-05-01T17:24:00Z,28.4330,-82.6670,4.886,1111122 
COMPS,ioos:station:USF.COMPS:ARP:1,2014-05-01T17:30:00Z,28.4330,-82.6670,0.576,1111122 
COMPS,ioos:station:USF.COMPS:ARP:1,2014-05-01T17:36:00Z,28.4330,-82.6670,0.595,1111122 
COMPS,ioos:station:USF.COMPS:ARP:1,2014-05-01T17:42:00Z,28.4330,-82.6670,0.612,1111122 
COMPS,ioos:station:USF.COMPS:ARP:1,2014-05-01T17:48:00Z,28.4330,-82.6670,0.627,1111122 
COMPS,ioos:station:USF.COMPS:ARP:1,2014-05-01T17:54:00Z,28.4330,-82.6670,0.645,1111122 
COMPS,ioos:station:USF.COMPS:ARP:1,2014-05-01T18:00:00Z,28.4330,-82.6670,0.659,1111122 
COMPS,ioos:station:USF.COMPS:ARP:1,2014-05-01T18:06:00Z,28.4330,-82.6670,0.669,1111122 
COMPS,ioos:station:USF.COMPS:ARP:1,2014-05-01T18:12:00Z,28.4330,-82.6670,0.681,1111122 
COMPS,ioos:station:USF.COMPS:ARP:1,2014-05-01T18:18:00Z,28.4330,-82.6670,0.69,1111122 
COMPS,ioos:station:USF.COMPS:ARP:1,2014-05-01T18:24:00Z,28.4330,-82.6670,0.698,1111122 
COMPS,ioos:station:USF.COMPS:ARP:1,2014-05-01T18:30:00Z,28.4330,-82.6670,0.708,1111122 
COMPS,ioos:station:USF.COMPS:ARP:1,2014-05-01T18:36:00Z,28.4330,-82.6670,0.718,1111122 
COMPS,ioos:station:USF.COMPS:ARP:1,2014-05-01T18:42:00Z,28.4330,-82.6670,0.733,1111122 
COMPS,ioos:station:USF.COMPS:ARP:1,2014-05-01T18:48:00Z,28.4330,-82.6670,0.748,1111122 
COMPS,ioos:station:USF.COMPS:ARP:1,2014-05-01T18:54:00Z,28.4330,-82.6670,0.765,1111122 
COMPS,ioos:station:USF.COMPS:ARP:1,2014-05-01T19:00:00Z,28.4330,-82.6670,0.783,1111122 
COMPS,ioos:station:USF.COMPS:ARP:1,2014-05-01T19:06:00Z,28.4330,-82.6670,0.806,1111122 
COMPS,ioos:station:USF.COMPS:ARP:1,2014-05-01T19:12:00Z,28.4330,-82.6670,0.828,1111122 
COMPS,ioos:station:USF.COMPS:ARP:1,2014-05-01T19:18:00Z,28.4330,-82.6670,0.842,1111122 
COMPS,ioos:station:USF.COMPS:ARP:1,2014-05-01T19:24:00Z,28.4330,-82.6670,0.838,1111122 
COMPS,ioos:station:USF.COMPS:ARP:1,2014-05-01T19:30:00Z,28.4330,-82.6670,0.812,1111122 
COMPS,ioos:station:USF.COMPS:ARP:1,2014-05-01T19:36:00Z,28.4330,-82.6670,0.769,1111122 
COMPS,ioos:station:USF.COMPS:ARP:1,2014-05-01T19:48:00Z,28.4330,-82.6670,0.678,1111122 
COMPS,ioos:station:USF.COMPS:ARP:1,2014-05-01T19:54:00Z,28.4330,-82.6670,0.647,1111122 
COMPS,ioos:station:USF.COMPS:ARP:1,2014-05-01T20:00:00Z,28.4330,-82.6670,0.617,1111122 
COMPS,ioos:station:USF.COMPS:ARP:1,2014-05-01T20:06:00Z,28.4330,-82.6670,0.594,1111122 
COMPS,ioos:station:USF.COMPS:ARP:1,2014-05-01T20:18:00Z,28.4330,-82.6670,0.548,1111122 
COMPS,ioos:station:USF.COMPS:ARP:1,2014-05-01T20:30:00Z,28.4330,-82.6670,0.504,1111122 
COMPS,ioos:station:USF.COMPS:ARP:1,2014-05-01T20:36:00Z,28.4330,-82.6670,0.484,1111122 
COMPS,ioos:station:USF.COMPS:ARP:1,2014-05-01T20:42:00Z,28.4330,-82.6670,0.472,1111122 
COMPS,ioos:station:USF.COMPS:ARP:1,2014-05-01T20:48:00Z,28.4330,-82.6670,0.459,1111122 
COMPS,ioos:station:USF.COMPS:ARP:1,2014-05-01T20:54:00Z,28.4330,-82.6670,0.447,1111122 
COMPS,ioos:station:USF.COMPS:ARP:1,2014-05-01T21:00:00Z,28.4330,-82.6670,0.427,1111122 
COMPS,ioos:station:USF.COMPS:ARP:1,2014-05-01T21:06:00Z,28.4330,-82.6670,0.412,1111122 
COMPS,ioos:station:USF.COMPS:ARP:1,2014-05-01T21:12:00Z,28.4330,-82.6670,0.399,1111122 
COMPS,ioos:station:USF.COMPS:ARP:1,2014-05-01T21:18:00Z,28.4330,-82.6670,0.378,1111122 
COMPS,ioos:station:USF.COMPS:ARP:1,2014-05-01T21:24:00Z,28.4330,-82.6670,0.364,1111122 
COMPS,ioos:station:USF.COMPS:ARP:1,2014-05-01T21:30:00Z,28.4330,-82.6670,0.349,1111122 
COMPS,ioos:station:USF.COMPS:ARP:1,2014-05-01T21:36:00Z,28.4330,-82.6670,0.328,1111122 
COMPS,ioos:station:USF.COMPS:ARP:1,2014-05-01T21:42:00Z,28.4330,-82.6670,0.304,1111122 
COMPS,ioos:station:USF.COMPS:ARP:1,2014-05-01T21:48:00Z,28.4330,-82.6670,0.288,1111122 
COMPS,ioos:station:USF.COMPS:ARP:1,2014-05-01T21:54:00Z,28.4330,-82.6670,0.268,1111122 
COMPS,ioos:station:USF.COMPS:ARP:1,2014-05-01T22:00:00Z,28.4330,-82.6670,0.249,1111122 
COMPS,ioos:station:USF.COMPS:ARP:1,2014-05-01T22:06:00Z,28.4330,-82.6670,0.224,1111122 
COMPS,ioos:station:USF.COMPS:ARP:1,2014-05-01T22:12:00Z,28.4330,-82.6670,0.202,1111122 
COMPS,ioos:station:USF.COMPS:ARP:1,2014-05-01T22:18:00Z,28.4330,-82.6670,0.181,1111122 
COMPS,ioos:station:USF.COMPS:ARP:1,2014-05-01T22:24:00Z,28.4330,-82.6670,0.158,1111122 
COMPS,ioos:station:USF.COMPS:ARP:1,2014-05-01T22:30:00Z,28.4330,-82.6670,0.135,1111122 
COMPS,ioos:station:USF.COMPS:ARP:1,2014-05-01T22:36:00Z,28.4330,-82.6670,0.113,1111122 
COMPS,ioos:station:USF.COMPS:ARP:1,2014-05-01T22:42:00Z,28.4330,-82.6670,0.093,1111122 
COMPS,ioos:station:USF.COMPS:ARP:1,2014-05-01T22:48:00Z,28.4330,-82.6670,0.071,1111122 
COMPS,ioos:station:USF.COMPS:ARP:1,2014-05-01T22:54:00Z,28.4330,-82.6670,0.048,1111122 
COMPS,ioos:station:USF.COMPS:ARP:1,2014-05-01T23:00:00Z,28.4330,-82.6670,0.023,1111122 
COMPS,ioos:station:USF.COMPS:ARP:1,2014-05-01T23:06:00Z,28.4330,-82.6670,0.002,1111122 
COMPS,ioos:station:USF.COMPS:ARP:1,2014-05-01T23:12:00Z,28.4330,-82.6670,-0.019,1111122 
COMPS,ioos:station:USF.COMPS:ARP:1,2014-05-01T23:18:00Z,28.4330,-82.6670,-0.038,1111122 
COMPS,ioos:station:USF.COMPS:ARP:1,2014-05-01T23:24:00Z,28.4330,-82.6670,-0.059,1111122 
COMPS,ioos:station:USF.COMPS:ARP:1,2014-05-01T23:30:00Z,28.4330,-82.6670,-0.078,1111122 
COMPS,ioos:station:USF.COMPS:ARP:1,2014-05-01T23:36:00Z,28.4330,-82.6670,-0.098,1111122 
COMPS,ioos:station:USF.COMPS:ARP:1,2014-05-01T23:42:00Z,28.4330,-82.6670,-0.117,1111122 
COMPS,ioos:station:USF.COMPS:ARP:1,2014-05-01T23:48:00Z,28.4330,-82.6670,-0.135,1111122 
COMPS,ioos:station:USF.COMPS:ARP:1,2014-05-01T23:54:00Z,28.4330,-82.6670,-0.154,1111122 
COMPS,ioos:station:USF.COMPS:ARP:1,2014-05-02T00:00:00Z,28.4330,-82.6670,-0.172,1111122 
COMPS,ioos:station:USF.COMPS:ARP:1,2014-05-02T00:06:00Z,28.4330,-82.6670,-0.114,1111122 
COMPS,ioos:station:USF.COMPS:ARP:1,2014-05-02T00:12:00Z,28.4330,-82.6670,-0.208,1111122 
COMPS,ioos:station:USF.COMPS:ARP:1,2014-05-02T00:18:00Z,28.4330,-82.6670,-0.225,1111122 
COMPS,ioos:station:USF.COMPS:ARP:1,2014-05-02T00:24:00Z,28.4330,-82.6670,-0.242,1111122 
COMPS,ioos:station:USF.COMPS:ARP:1,2014-05-02T00:30:00Z,28.4330,-82.6670,-0.259,1111122 
COMPS,ioos:station:USF.COMPS:ARP:1,2014-05-02T00:36:00Z,28.4330,-82.6670,-0.275,1111122 
COMPS,ioos:station:USF.COMPS:ARP:1,2014-05-02T00:42:00Z,28.4330,-82.6670,-0.29,1111122 
COMPS,ioos:station:USF.COMPS:ARP:1,2014-05-02T00:48:00Z,28.4330,-82.6670,-0.305,1111122 
COMPS,ioos:station:USF.COMPS:ARP:1,2014-05-02T00:54:00Z,28.4330,-82.6670,-0.321,1111122 
COMPS,ioos:station:USF.COMPS:ARP:1,2014-05-02T01:00:00Z,28.4330,-82.6670,-0.334,1111122 
COMPS,ioos:station:USF.COMPS:ARP:1,2014-05-02T01:06:00Z,28.4330,-82.6670,-0.347,1111122 
COMPS,ioos:station:USF.COMPS:ARP:1,2014-05-02T01:12:00Z,28.4330,-82.6670,-0.36,1111122 
COMPS,ioos:station:USF.COMPS:ARP:1,2014-05-02T01:18:00Z,28.4330,-82.6670,-0.372,1111122 
COMPS,ioos:station:USF.COMPS:ARP:1,2014-05-02T01:24:00Z,28.4330,-82.6670,-0.384,1111122 
COMPS,ioos:station:USF.COMPS:ARP:1,2014-05-02T01:30:00Z,28.4330,-82.6670,-0.396,1111122 
COMPS,ioos:station:USF.COMPS:ARP:1,2014-05-02T01:36:00Z,28.4330,-82.6670,-0.408,1111122 
COMPS,ioos:station:USF.COMPS:ARP:1,2014-05-02T01:42:00Z,28.4330,-82.6670,-0.418,1111122 
COMPS,ioos:station:USF.COMPS:ARP:1,2014-05-02T01:48:00Z,28.4330,-82.6670,-0.429,1111122 
COMPS,ioos:station:USF.COMPS:ARP:1,2014-05-02T01:54:00Z,28.4330,-82.6670,-0.439,1111122 
COMPS,ioos:station:USF.COMPS:ARP:1,2014-05-02T02:00:00Z,28.4330,-82.6670,-0.449,1111122 
COMPS,ioos:station:USF.COMPS:ARP:1,2014-05-02T02:06:00Z,28.4330,-82.6670,-0.458,1111122 
COMPS,ioos:station:USF.COMPS:ARP:1,2014-05-02T02:12:00Z,28.4330,-82.6670,-0.467,1111122 
COMPS,ioos:station:USF.COMPS:ARP:1,2014-05-02T02:18:00Z,28.4330,-82.6670,-0.474,1111122 
COMPS,ioos:station:USF.COMPS:ARP:1,2014-05-02T02:24:00Z,28.4330,-82.6670,-0.482,1111122 
COMPS,ioos:station:USF.COMPS:ARP:1,2014-05-02T02:30:00Z,28.4330,-82.6670,-0.49,1111122 
COMPS,ioos:station:USF.COMPS:ARP:1,2014-05-02T02:36:00Z,28.4330,-82.6670,-0.497,1111122 
COMPS,ioos:station:USF.COMPS:ARP:1,2014-05-02T02:42:00Z,28.4330,-82.6670,-0.504,1111122 
COMPS,ioos:station:USF.COMPS:ARP:1,2014-05-02T02:48:00Z,28.4330,-82.6670,-0.512,1111122 
COMPS,ioos:station:USF.COMPS:ARP:1,2014-05-02T02:54:00Z,28.4330,-82.6670,-0.517,1111122 
COMPS,ioos:station:USF.COMPS:ARP:1,2014-05-02T03:00:00Z,28.4330,-82.6670,-0.523,1111122 
COMPS,ioos:station:USF.COMPS:ARP:1,2014-05-02T03:06:00Z,28.4330,-82.6670,-0.529,1111122 
COMPS,ioos:station:USF.COMPS:ARP:1,2014-05-02T03:12:00Z,28.4330,-82.6670,-0.534,1111122 
COMPS,ioos:station:USF.COMPS:ARP:1,2014-05-02T03:18:00Z,28.4330,-82.6670,-0.539,1111122 
COMPS,ioos:station:USF.COMPS:ARP:1,2014-05-02T03:24:00Z,28.4330,-82.6670,-0.543,1111122 